This is the latest recevied weather packets stored in our database for station/object IZ1UQG-N2. If no packets are shown the sender has not sent any weather packets the latest 10 day(s).
| Time | Temp. | Humidity | Pressure | Rain* | Wind** | Luminosity | Snow |
|---|---|---|---|---|---|---|---|
| 1787590202 | 26.67° C | 61% | 1011.8 hPa | 0 mm | - | 26 W/m² | - |
| 1787590144 | 26.67° C | 60% | 1011.7 hPa | 0 mm | - | 28 W/m² | - |
| 1787590083 | 26.67° C | 60% | 1011.8 hPa | 0 mm | - | 30 W/m² | - |
| 1787590023 | 26.67° C | 60% | 1011.6 hPa | 0 mm | - | 32 W/m² | - |
| 1787589963 | 26.67° C | 60% | 1011.7 hPa | 0 mm | - | 33 W/m² | - |
| 1787589903 | 26.67° C | 60% | 1011.7 hPa | 0 mm | - | 35 W/m² | - |
| 1787589842 | 26.67° C | 59% | 1011.7 hPa | 0 mm | - | 37 W/m² | - |
| 1787589782 | 26.67° C | 59% | 1011.8 hPa | 0 mm | - | 39 W/m² | - |
| 1787589722 | 27.22° C | 59% | 1011.9 hPa | 0 mm | - | 40 W/m² | - |
| 1787589662 | 26.67° C | 59% | 1011.9 hPa | 0 mm | - | 42 W/m² | - |
| 1787589604 | 26.67° C | 59% | 1011.9 hPa | 0 mm | - | 42 W/m² | - |
| 1787589543 | 26.67° C | 59% | 1011.9 hPa | 0 mm | - | 47 W/m² | - |
| 1787589483 | 26.67° C | 59% | 1012.1 hPa | 0 mm | - | 51 W/m² | - |
| 1787589423 | 26.67° C | 59% | 1012 hPa | 0 mm | - | 56 W/m² | - |
| 1787589363 | 26.67° C | 59% | 1012 hPa | 0 mm | - | 58 W/m² | - |
| 1787589303 | 26.67° C | 59% | 1012.1 hPa | 0 mm | - | 60 W/m² | - |
| 1787589242 | 26.67° C | 59% | 1012.1 hPa | 0 mm | - | 56 W/m² | - |
| 1787589182 | 26.67° C | 59% | 1012 hPa | 0 mm | - | 53 W/m² | - |
| 1787589122 | 26.67° C | 59% | 1012 hPa | 0 mm | - | 51 W/m² | - |
| 1787589064 | 26.67° C | 59% | 1012 hPa | 0 mm | - | 51 W/m² | - |
| 1787589004 | 26.67° C | 59% | 1012.1 hPa | 0 mm | - | 53 W/m² | - |
| 1787588943 | 27.22° C | 59% | 1012 hPa | 0 mm | - | 56 W/m² | - |
| 1787588883 | 26.67° C | 59% | 1012 hPa | 0 mm | - | 62 W/m² | - |
| 1787588823 | 26.67° C | 58% | 1012 hPa | 0 mm | - | 63 W/m² | - |
| 1787588763 | 26.67° C | 58% | 1012 hPa | 0 mm | - | 69 W/m² | - |
* Rain latest hour (hover to see other rain measurements)
** Current wind speed in m/s (hover to see current wind gust speed)